Location: La Pernelle
(49.6188°N, 1.2999°W)
Time: 13:01:34
(UTC+00:00)

Cosmos 1536 Rocket - Pass Details

Date: 12 June 2021
Orbit: 604 x 633 km, 82.5° (Epoch: 29 July)

Event Time Altitude Azimuth Distance (km) Brightness Sun altitude
Exits shadow 23:05:01 23° 200° (SSW) 1,352 4.8 -15.9°
Maximum altitude 23:07:46 72° 280° (W) 669 3.7 -16.1°
Drops below altitude 10° 23:12:16 10° 6° (N) 2,023 7.3 -16.2°
Sets 23:14:31 0° 9° (N) 2,932 8.4 -16.3°
